Time,TemperatureF,DewpointF,PressureIn,WindDirection,WindDirectionDegrees,WindSpeedMPH,WindSpeedGustMPH,Humidity,HourlyPrecipIn,Conditions,Clouds,dailyrainin,SoftwareType,DateUTC
2013-08-28 00:01:00,67.3,64.6,29.80,NE,45,0.0,-999.0,91,-99.99,,,0.00,Acu-Link.com,2013-08-28 04:01:00,
2013-08-28 00:17:00,67.3,64.3,29.80,NE,45,0.0,-999.0,90,-99.99,,,0.00,Acu-Link.com,2013-08-28 04:17:00,
2013-08-28 00:32:00,67.1,64.1,29.80,East,90,0.0,-999.0,90,-99.99,,,0.00,Acu-Link.com,2013-08-28 04:32:00,
2013-08-28 00:47:00,66.7,63.7,29.80,East,90,0.0,-999.0,90,-99.99,,,0.00,Acu-Link.com,2013-08-28 04:47:00,
2013-08-28 01:02:00,66.6,63.9,29.79,East,90,0.0,-999.0,91,-99.99,,,0.00,Acu-Link.com,2013-08-28 05:02:00,
2013-08-28 01:17:00,66.2,63.5,29.78,East,90,0.0,-999.0,91,-99.99,,,0.00,Acu-Link.com,2013-08-28 05:17:00,
2013-08-28 01:33:00,66.2,63.8,29.79,East,90,0.0,-999.0,92,-99.99,,,0.00,Acu-Link.com,2013-08-28 05:33:00,
2013-08-28 01:48:00,66.0,63.6,29.77,East,90,0.0,-999.0,92,-99.99,,,0.00,Acu-Link.com,2013-08-28 05:48:00,
2013-08-28 02:03:00,66.0,63.6,29.77,East,90,0.0,-999.0,92,-99.99,,,0.00,Acu-Link.com,2013-08-28 06:03:00,
2013-08-28 02:18:00,66.4,64.0,29.77,East,90,0.0,-999.0,92,-99.99,,,0.00,Acu-Link.com,2013-08-28 06:18:00,
2013-08-28 02:33:00,66.6,63.9,29.76,East,90,0.0,-999.0,91,-99.99,,,0.00,Acu-Link.com,2013-08-28 06:33:00,
2013-08-28 02:49:00,66.6,63.6,29.76,East,90,0.0,-999.0,90,-99.99,,,0.00,Acu-Link.com,2013-08-28 06:49:00,
2013-08-28 03:04:00,66.4,63.4,29.76,East,90,0.0,-999.0,90,-99.99,,,0.00,Acu-Link.com,2013-08-28 07:04:00,
2013-08-28 03:19:00,66.2,63.2,29.75,East,90,0.0,-999.0,90,-99.99,,,0.00,Acu-Link.com,2013-08-28 07:19:00,
2013-08-28 03:34:00,66.0,62.7,29.77,East,90,0.0,-999.0,89,-99.99,,,0.00,Acu-Link.com,2013-08-28 07:34:00,
2013-08-28 03:50:00,65.5,63.1,29.75,East,90,0.0,-999.0,92,-99.99,,,0.00,Acu-Link.com,2013-08-28 07:50:00,
2013-08-28 04:05:00,65.1,62.7,29.75,ESE,112,0.0,-999.0,92,-99.99,,,0.00,Acu-Link.com,2013-08-28 08:05:00,
2013-08-28 04:20:00,64.8,62.4,29.76,ESE,112,0.0,-999.0,92,-99.99,,,0.00,Acu-Link.com,2013-08-28 08:20:00,
2013-08-28 04:36:00,64.8,62.4,29.76,ESE,112,0.0,-999.0,92,-99.99,,,0.00,Acu-Link.com,2013-08-28 08:36:00,
2013-08-28 04:51:00,64.6,62.2,29.76,NE,45,0.0,-999.0,92,-99.99,,,0.00,Acu-Link.com,2013-08-28 08:51:00,
2013-08-28 05:06:00,64.4,62.0,29.77,NE,45,0.0,-999.0,92,-99.99,,,0.00,Acu-Link.com,2013-08-28 09:06:00,
2013-08-28 05:22:00,64.0,61.9,29.76,East,90,0.0,-999.0,93,-99.99,,,0.00,Acu-Link.com,2013-08-28 09:22:00,
2013-08-28 05:37:00,63.9,61.8,29.78,ESE,112,0.0,-999.0,93,-99.99,,,0.00,Acu-Link.com,2013-08-28 09:37:00,
2013-08-28 05:52:00,63.7,61.9,29.78,ENE,67,0.0,-999.0,94,-99.99,,,0.00,Acu-Link.com,2013-08-28 09:52:00,
2013-08-28 06:07:00,63.7,62.2,29.79,ESE,112,0.0,-999.0,95,-99.99,,,0.00,Acu-Link.com,2013-08-28 10:07:00,
2013-08-28 06:22:00,63.5,62.0,29.79,SE,135,0.0,-999.0,95,-99.99,,,0.00,Acu-Link.com,2013-08-28 10:22:00,
2013-08-28 06:37:00,63.3,61.5,29.78,SE,135,0.0,-999.0,94,-99.99,,,0.00,Acu-Link.com,2013-08-28 10:37:00,
2013-08-28 06:53:00,63.7,62.2,29.79,NNE,22,0.0,-999.0,95,-99.99,,,0.00,Acu-Link.com,2013-08-28 10:53:00,
2013-08-28 07:08:00,63.9,62.4,29.79,NNE,22,0.0,-999.0,95,-99.99,,,0.00,Acu-Link.com,2013-08-28 11:08:00,
2013-08-28 07:23:00,64.2,62.7,29.80,NNE,22,0.0,-999.0,95,-99.99,,,0.00,Acu-Link.com,2013-08-28 11:23:00,
2013-08-28 07:38:00,65.1,63.3,29.80,SW,225,0.0,-999.0,94,-99.99,,,0.00,Acu-Link.com,2013-08-28 11:38:00,
2013-08-28 07:53:00,66.0,64.2,29.79,SSW,202,0.0,-999.0,94,-99.99,,,0.00,Acu-Link.com,2013-08-28 11:53:00,
2013-08-28 08:09:00,67.1,64.4,29.79,South,180,0.0,-999.0,91,-99.99,,,0.00,Acu-Link.com,2013-08-28 12:09:00,
2013-08-28 08:24:00,68.5,65.4,29.80,SW,225,0.0,-999.0,90,-99.99,,,0.00,Acu-Link.com,2013-08-28 12:24:00,
2013-08-28 08:39:00,69.6,66.5,29.79,SW,225,0.0,-999.0,90,-99.99,,,0.00,Acu-Link.com,2013-08-28 12:39:00,
2013-08-28 08:54:00,70.5,67.1,29.80,SSW,202,0.0,-999.0,89,-99.99,,,0.00,Acu-Link.com,2013-08-28 12:54:00,
2013-08-28 09:10:00,71.8,67.4,29.80,SSW,202,0.0,-999.0,86,-99.99,,,0.00,Acu-Link.com,2013-08-28 13:10:00,
2013-08-28 09:25:00,73.2,67.0,29.80,SSW,202,0.0,-999.0,81,-99.99,,,0.00,Acu-Link.com,2013-08-28 13:25:00,
2013-08-28 09:40:00,74.1,67.9,29.80,SSW,202,0.0,-999.0,81,-99.99,,,0.00,Acu-Link.com,2013-08-28 13:40:00,
2013-08-28 09:55:00,74.7,67.4,29.79,South,180,0.0,-999.0,78,-99.99,,,0.00,Acu-Link.com,2013-08-28 13:55:00,
2013-08-28 10:10:00,75.6,67.5,29.79,East,90,1.7,-999.0,76,-99.99,,,0.00,Acu-Link.com,2013-08-28 14:10:00,
2013-08-28 10:26:00,76.5,68.0,29.81,SSW,202,0.0,-999.0,75,-99.99,,,0.00,Acu-Link.com,2013-08-28 14:26:00,
2013-08-28 10:41:00,76.8,67.1,29.79,ESE,112,2.7,-999.0,72,-99.99,,,0.00,Acu-Link.com,2013-08-28 14:41:00,
2013-08-28 10:56:00,77.5,67.7,29.79,SSE,157,1.7,-999.0,72,-99.99,,,0.00,Acu-Link.com,2013-08-28 14:56:00,
2013-08-28 11:11:00,77.5,66.9,29.79,SSW,202,0.0,-999.0,70,-99.99,,,0.00,Acu-Link.com,2013-08-28 15:11:00,
2013-08-28 11:26:00,78.3,68.1,29.78,SSW,202,0.0,-999.0,71,-99.99,,,0.00,Acu-Link.com,2013-08-28 15:26:00,
2013-08-28 11:42:00,78.8,69.0,29.78,WSW,247,0.0,-999.0,72,-99.99,,,0.00,Acu-Link.com,2013-08-28 15:42:00,
2013-08-28 11:57:00,79.5,68.4,29.79,West,270,0.0,-999.0,69,-99.99,,,0.00,Acu-Link.com,2013-08-28 15:57:00,
2013-08-28 12:12:00,79.3,67.8,29.78,SW,225,0.0,-999.0,68,-99.99,,,0.00,Acu-Link.com,2013-08-28 16:12:00,
2013-08-28 12:27:00,80.2,69.9,29.79,South,180,1.7,-999.0,71,-99.99,,,0.00,Acu-Link.com,2013-08-28 16:27:00,
2013-08-28 12:42:00,82.2,69.2,29.78,SSW,202,1.7,-999.0,65,-99.99,,,0.00,Acu-Link.com,2013-08-28 16:42:00,
2013-08-28 12:58:00,82.6,68.7,29.78,SSW,202,0.0,-999.0,63,-99.99,,,0.00,Acu-Link.com,2013-08-28 16:58:00,
2013-08-28 13:13:00,84.2,67.8,29.78,SSE,157,1.7,-999.0,58,-99.99,,,0.00,Acu-Link.com,2013-08-28 17:13:00,
2013-08-28 13:28:00,83.7,67.3,29.78,SE,135,0.0,-999.0,58,-99.99,,,0.00,Acu-Link.com,2013-08-28 17:28:00,
2013-08-28 13:43:00,84.2,68.3,29.77,NNW,337,1.7,-999.0,59,-99.99,,,0.00,Acu-Link.com,2013-08-28 17:43:00,
2013-08-28 13:58:00,83.7,68.8,29.76,SW,225,0.0,-999.0,61,-99.99,,,0.00,Acu-Link.com,2013-08-28 17:58:00,
2013-08-28 14:14:00,84.4,70.4,29.76,South,180,0.0,-999.0,63,-99.99,,,0.00,Acu-Link.com,2013-08-28 18:14:00,
2013-08-28 14:29:00,84.2,68.8,29.76,SSW,202,0.0,-999.0,60,-99.99,,,0.00,Acu-Link.com,2013-08-28 18:29:00,
2013-08-28 14:44:00,84.4,68.5,29.76,West,270,0.0,-999.0,59,-99.99,,,0.00,Acu-Link.com,2013-08-28 18:44:00,
2013-08-28 14:59:00,84.0,68.1,29.77,SW,225,1.1,-999.0,59,-99.99,,,0.00,Acu-Link.com,2013-08-28 18:59:00,
2013-08-28 15:15:00,86.2,69.1,29.75,SW,225,0.0,-999.0,57,-99.99,,,0.00,Acu-Link.com,2013-08-28 19:15:00,
2013-08-28 15:30:00,89.1,68.0,29.75,North,0,0.0,-999.0,50,-99.99,,,0.00,Acu-Link.com,2013-08-28 19:30:00,
2013-08-28 15:45:00,88.7,65.8,29.76,NNE,22,1.7,-999.0,47,-99.99,,,0.00,Acu-Link.com,2013-08-28 19:45:00,
2013-08-28 16:00:00,88.3,66.7,29.75,ESE,112,0.0,-999.0,49,-99.99,,,0.00,Acu-Link.com,2013-08-28 20:00:00,
2013-08-28 16:15:00,89.1,66.2,29.76,NNE,22,0.0,-999.0,47,-99.99,,,0.00,Acu-Link.com,2013-08-28 20:15:00,
2013-08-28 16:31:00,89.1,66.8,29.77,East,90,3.2,-999.0,48,-99.99,,,0.00,Acu-Link.com,2013-08-28 20:31:00,
2013-08-28 16:46:00,87.8,65.6,29.77,NE,45,0.0,-999.0,48,-99.99,,,0.00,Acu-Link.com,2013-08-28 20:46:00,
2013-08-28 17:01:00,86.9,67.1,29.77,SSW,202,0.0,-999.0,52,-99.99,,,0.00,Acu-Link.com,2013-08-28 21:01:00,
2013-08-28 17:17:00,85.1,66.6,29.77,NE,45,2.7,-999.0,54,-99.99,,,0.00,Acu-Link.com,2013-08-28 21:17:00,
2013-08-28 17:32:00,83.1,65.2,29.77,NE,45,1.1,-999.0,55,-99.99,,,0.00,Acu-Link.com,2013-08-28 21:32:00,
2013-08-28 17:47:00,83.1,66.3,29.77,ESE,112,3.7,-999.0,57,-99.99,,,0.00,Acu-Link.com,2013-08-28 21:47:00,
2013-08-28 18:02:00,82.2,66.9,29.77,ESE,112,4.2,-999.0,60,-99.99,,,0.00,Acu-Link.com,2013-08-28 22:02:00,
2013-08-28 18:17:00,79.9,67.5,29.78,ESE,112,0.0,-999.0,66,-99.99,,,0.00,Acu-Link.com,2013-08-28 22:17:00,
2013-08-28 18:33:00,77.5,67.7,29.81,South,180,0.0,-999.0,72,-99.99,,,0.00,Acu-Link.com,2013-08-28 22:33:00,
2013-08-28 18:48:00,77.0,67.3,29.80,ENE,67,0.0,-999.0,72,-99.99,,,0.00,Acu-Link.com,2013-08-28 22:48:00,
2013-08-28 19:03:00,76.5,67.6,29.80,ESE,112,0.0,-999.0,74,-99.99,,,0.00,Acu-Link.com,2013-08-28 23:03:00,
2013-08-28 19:18:00,75.9,67.8,29.81,East,90,0.0,-999.0,76,-99.99,,,0.00,Acu-Link.com,2013-08-28 23:18:00,
2013-08-28 19:33:00,75.6,67.5,29.82,ENE,67,0.0,-999.0,76,-99.99,,,0.00,Acu-Link.com,2013-08-28 23:33:00,
2013-08-28 19:49:00,74.8,67.5,29.81,ENE,67,0.0,-999.0,78,-99.99,,,0.00,Acu-Link.com,2013-08-28 23:49:00,
2013-08-28 20:04:00,74.1,67.2,29.81,East,90,1.1,-999.0,79,-99.99,,,0.00,Acu-Link.com,2013-08-29 00:04:00,
2013-08-28 20:19:00,73.2,67.0,29.81,NE,45,0.0,-999.0,81,-99.99,,,0.00,Acu-Link.com,2013-08-29 00:19:00,
2013-08-28 20:34:00,72.1,66.6,29.82,ESE,112,1.1,-999.0,83,-99.99,,,0.00,Acu-Link.com,2013-08-29 00:34:00,
2013-08-28 20:49:00,71.4,66.6,29.83,ENE,67,1.1,-999.0,85,-99.99,,,0.00,Acu-Link.com,2013-08-29 00:49:00,
2013-08-28 21:05:00,70.7,66.0,29.84,WNW,292,0.0,-999.0,85,-99.99,,,0.00,Acu-Link.com,2013-08-29 01:05:00,
2013-08-28 21:20:00,70.0,65.9,29.84,NNE,22,0.0,-999.0,87,-99.99,,,0.00,Acu-Link.com,2013-08-29 01:20:00,
2013-08-28 21:35:00,69.4,66.0,29.84,ESE,112,0.0,-999.0,89,-99.99,,,0.00,Acu-Link.com,2013-08-29 01:35:00,
2013-08-28 21:51:00,68.9,65.8,29.82,NE,45,0.0,-999.0,90,-99.99,,,0.00,Acu-Link.com,2013-08-29 01:51:00,
2013-08-28 22:06:00,68.7,65.6,29.83,SE,135,0.0,-999.0,90,-99.99,,,0.00,Acu-Link.com,2013-08-29 02:06:00,
2013-08-28 22:21:00,68.2,65.5,29.83,NE,45,0.0,-999.0,91,-99.99,,,0.00,Acu-Link.com,2013-08-29 02:21:00,
2013-08-28 22:36:00,68.0,65.6,29.84,ENE,67,0.0,-999.0,92,-99.99,,,0.00,Acu-Link.com,2013-08-29 02:36:00,
2013-08-28 22:51:00,68.0,65.6,29.84,ESE,112,0.0,-999.0,92,-99.99,,,0.00,Acu-Link.com,2013-08-29 02:51:00,
2013-08-28 23:07:00,67.8,65.4,29.85,East,90,0.0,-999.0,92,-99.99,,,0.00,Acu-Link.com,2013-08-29 03:07:00,
2013-08-28 23:22:00,67.3,64.9,29.85,SW,225,1.7,-999.0,92,-99.99,,,0.00,Acu-Link.com,2013-08-29 03:22:00,
2013-08-28 23:37:00,66.9,64.5,29.85,ESE,112,0.0,-999.0,92,-99.99,,,0.00,Acu-Link.com,2013-08-29 03:37:00,
2013-08-28 23:52:00,66.6,64.5,29.86,South,180,0.0,-999.0,93,-99.99,,,0.00,Acu-Link.com,2013-08-29 03:52:00,